Regional Weather Roundup
Issued by NWS Cleveland, OH

Home | Current Version | Previous Version | Text Only | Print | Product List | Glossary Off
Versions: 1 2 3 4 5 6 7 8 9 10 11 12 13 14 15 16 17 18 19 20 21 22 23 24 25 26 27 28 29 30 31 32 33 34 35 36 37 38 39 40 41 42 43 44 45 46 47 48 49 50

000
ASUS41 KCLE 261012
RWRCLE
OHIO REGIONAL WEATHER ROUNDUP
NATIONAL WEATHER SERVICE WILMINGTON, OH
600 AM EDT TUE SEP 26 2017

NOTE: "FAIR" INDICATES FEW OR NO CLOUDS BELOW 12,000 FEET WITH NO
SIGNIFICANT WEATHER AND/OR OBSTRUCTIONS TO VISIBILITY.

OHZ001>008-015>018-024>027-034-035-043-044-261100-
   NORTHWEST OHIO

CITY           SKY/WX    TMP DP  RH WIND       PRES   REMARKS
DEFIANCE       FAIR      62  59  90 CALM      29.99S
FINDLAY        FAIR      67  60  78 S5        30.00S
TOLEDO EXPRESS FAIR      65  64  97 CALM      29.99R
TOLEDO EXEC    FAIR      69  63  81 S5        30.00R
LIMA           FAIR      64  61  90 CALM      30.01S
$$

OHZ009>014-019>023-028>033-038-089-261100-
   NORTHEAST OHIO

CITY           SKY/WX    TMP DP  RH WIND       PRES   REMARKS
CLE-HOPKINS    FAIR      69  63  81 S7        30.03R
CLE-LAKEFRONT  FAIR      72  61  68 SE8       30.00R
CUY CO. ARPT   NOT AVBL
LORAIN-ELYRIA  FAIR      64  57  78 S5        30.02S
ASHTABULA      FAIR      64  64 100 CALM      30.04R FOG
AKRON-CANTON   FAIR      66  59  78 CALM      30.04S
WOOSTER        FAIR      56  55  97 CALM      30.04S FOG
MANSFIELD      FAIR      66  62  87 S5        30.04R
YOUNGSTOWN     FAIR      63  62  97 E5        30.04S
$$

OHZ042-051>053-060>062-070>072-077>081-261100-
  SOUTHWEST OHIO

CITY           SKY/WX    TMP DP  RH WIND       PRES   REMARKS
CINC-COVINGTON FAIR      65  65 100 CALM      30.02R
CINC-LUNKEN    CLOUDY    62  62 100 CALM      30.02S FOG
HAMILTON       FAIR      60  59  96 CALM      30.02S
DAYTON         FAIR      64  61  90 CALM      30.04R
WRIGHT-PAT AFB FAIR      63  63 100 CALM      30.02S
DAYTON GENERAL FAIR      65  61  87 CALM      30.02R
WILMINGTON     FAIR      60  60 100 CALM      30.03R
$$

OHZ036-037-039>041-045>050-054>059-063>069-073>076-082>088-261100-
  CENTRAL AND SOUTHEAST OHIO

CITY           SKY/WX    TMP DP  RH WIND       PRES   REMARKS
COLUMBUS       FAIR      65  63  93 CALM      30.02R
OSU AIRPORT    FAIR      65  64  97 CALM      30.02S
BOLTON FIELD   FAIR      59  59  99 CALM      30.03S
RICKENBACK AFB FAIR      61  61 100 CALM      30.02S
NEWARK         FOG       60  59  96 CALM      30.03S VSB 1/4
MARION         FAIR      63  60  90 CALM      30.03R
LANCASTER      FOG       56  56 100 CALM      30.03S VSB 3/4
ZANESVILLE     FAIR      61  59  93 CALM      30.02S
NEW PHILLY     FAIR      59  59 100 CALM      30.04R
$$




USA.gov is the U.S. government's official web portal to all federal, state and local government web resources and services.